Regional Weather Roundup
Issued by NWS

Home | Current Version | Previous Version | Graphics & Text | Print | Product List | Glossary On
Versions: 1 2 3 4 5 6 7 8 9 10 11 12 13 14 15 16 17 18 19 20 21 22 23 24 25 26 27 28 29 30 31 32 33 34 35 36 37 38 39 40 41 42 43 44 45 46 47 48 49 50
000
ASUS43 KLSX 211657
RWRMO

WEATHER SUMMARY FOR MISSOURI
NATIONAL WEATHER SERVICE SPRINGFIELD MO
1200 PM CDT SAT APR 21 2018

NOTE: "FAIR" INDICATES FEW OR NO CLOUDS BELOW 12,000 FEET WITH NO
       SIGNIFICANT WEATHER AND/OR OBSTRUCTIONS TO VISIBILITY.
       CURRENT SKY AND/OR WEATHER CONDITIONS ARE NOT AVAILABLE FOR
       CHILLICOTHE AND FARMINGTON.

MOZ001>031-035>038-043-044-053-054-211800-
...NORTHERN AND WESTERN MISSOURI...

CITY           SKY/WX    TMP DP  RH WIND       PRES   REMARKS
KANSAS CTY INT CLOUDY    51  34  52 E6        30.24F
LEE`S SUMMIT   CLOUDY    56  30  37 SE6       30.24S
ST JOSEPH      CLOUDY    53  31  42 E5        30.28R
CHILLICOTHE      N/A     56  28  34 E8        30.28F

$$
MOZ066>068-077>081-088>096-101>105-211800-
...SOUTHWEST MISSOURI...

CITY           SKY/WX    TMP DP  RH WIND       PRES   REMARKS
SPRINGFIELD    CLOUDY    59  35  40 SE12      30.16F
JOPLIN         CLOUDY    61  41  47 E12G17    30.15F
BRANSON        CLOUDY    55  36  47 E6        30.17F

$$
MOZ032>034-039>042-045>050-055>058-069>072-211800-
...CENTRAL MISSOURI...

CITY           SKY/WX    TMP DP  RH WIND       PRES   REMARKS
COLUMBIA       NOT AVBL
JEFFERSON CITY MOSUNNY   61  29  29 E12       30.25S
ROLLA          CLOUDY    60  30  32 E13       30.23F
SEDALIA        CLOUDY    60  32  34 E9        30.26S
WARRENSBURG    CLOUDY    59  30  33 E8        30.22F

$$
MOZ051-052-059>065-211800-
...EAST CENTRAL MISSOURI...

CITY           SKY/WX    TMP DP  RH WIND       PRES   REMARKS
ST LOUIS INTL  CLOUDY    61  31  32 E13       30.31F

$$
MOZ072>076-082>087-097>100-106>115-211800-
...SOUTH CENTRAL AND SOUTHEAST MISSOURI...

CITY           SKY/WX    TMP DP  RH WIND       PRES   REMARKS
CAPE GIRARDEAU FAIR      63  37  38 CALM      30.28F
POPLAR BLUFF   FAIR      64  40  41 E8        30.25F
WEST PLAINS    CLOUDY    63  33  32 SE7       30.23R

$$



USA.gov is the U.S. government's official web portal to all federal, state and local government web resources and services.